When you browse on this site, cookies collect data to enhance your experience and personalize the content and advertising you see.
Visit our Privacy Policy to learn more. By continuing to use the site, you agree to this use of cookies and data.
  • In Latvia
  • List of Countries
  • For 7 days
  • Water Temperature
  • Weather Map
  • Weather Widgets
  • user-avatar
    Login

    Hourly Weather Jurmala

    Today, 18 September, Wednesday

    Time Temperature Precipitation Wind Pressure Humidity
    00:00 +8°C° 0.2 mm 2 mps 747 mmHg 89%
    01:00 +8°C° 0.2 mm 2 mps 748 mmHg 89%
    02:00 +8°C° 0 mm 2 mps 748 mmHg 89%
    03:00 +8°C° 0.2 mm 3 mps 748 mmHg 90%
    04:00 +8°C° 0.2 mm 3 mps 748 mmHg 90%
    05:00 +7°C° 0.2 mm 3 mps 749 mmHg 90%
    06:00 +7°C° 0 mm 4 mps 749 mmHg 87%
    07:00 +8°C° 0 mm 4 mps 750 mmHg 83%
    08:00 +10°C° 0 mm 3 mps 750 mmHg 81%
    09:00 +11°C° 0.1 mm 3 mps 751 mmHg 75%
    10:00 +12°C° 0.1 mm 4 mps 751 mmHg 70%
    11:00 +13°C° 0.1 mm 4 mps 752 mmHg 64%
    12:00 +13°C° 0.3 mm 4 mps 752 mmHg 65%
    13:00 +13°C° 0.3 mm 5 mps 752 mmHg 67%
    14:00 +13°C° 0 mm 5 mps 753 mmHg 68%
    15:00 +13°C° 0.3 mm 4 mps 753 mmHg 72%
    16:00 +12°C° 0.3 mm 4 mps 754 mmHg 75%
    17:00 +12°C° 0.3 mm 4 mps 754 mmHg 79%
    18:00 +11°C° 0.3 mm 4 mps 755 mmHg 81%
    19:00 +10°C° 0.3 mm 4 mps 755 mmHg 83%
    20:00 +8°C° 0.3 mm 4 mps 756 mmHg 85%
    21:00 +8°C° 0.1 mm 4 mps 756 mmHg 85%
    22:00 +8°C° 0.1 mm 3 mps 757 mmHg 85%
    23:00 +8°C° 0.1 mm 3 mps 757 mmHg 85%

    Tomorrow, 19 September, Thursday

    Time Temperature Precipitation Wind Pressure Humidity
    00:00 +8°C° 0.1 mm 3 mps 758 mmHg 86%
    01:00 +7°C° 0.1 mm 3 mps 758 mmHg 86%
    02:00 +7°C° 0.1 mm 3 mps 758 mmHg 87%
    03:00 +7°C° 0.2 mm 3 mps 758 mmHg 88%
    04:00 +7°C° 0.2 mm 3 mps 759 mmHg 89%
    05:00 +7°C° 0.2 mm 3 mps 759 mmHg 90%
    06:00 +7°C° 0.3 mm 3 mps 759 mmHg 88%
    07:00 +8°C° 0.3 mm 3 mps 760 mmHg 87%
    08:00 +9°C° 0.3 mm 3 mps 760 mmHg 85%
    09:00 +10°C° 0.4 mm 3 mps 760 mmHg 81%
    10:00 +11°C° 0.4 mm 3 mps 760 mmHg 76%
    11:00 +12°C° 0.4 mm 3 mps 760 mmHg 72%
    12:00 +12°C° 0.5 mm 3 mps 760 mmHg 72%
    13:00 +12°C° 0.5 mm 3 mps 760 mmHg 71%
    14:00 +12°C° 0.5 mm 4 mps 760 mmHg 71%
    15:00 +12°C° 0.4 mm 4 mps 760 mmHg 74%
    16:00 +11°C° 0.4 mm 4 mps 761 mmHg 77%
    17:00 +11°C° 0.4 mm 4 mps 761 mmHg 80%
    18:00 +10°C° 0.5 mm 4 mps 761 mmHg 82%
    19:00 +8°C° 0.5 mm 5 mps 761 mmHg 83%
    20:00 +7°C° 0.5 mm 5 mps 762 mmHg 85%
    21:00 +7°C° 0.3 mm 5 mps 762 mmHg 84%
    22:00 +7°C° 0.3 mm 6 mps 762 mmHg 84%
    23:00 +5°C° 0.3 mm 6 mps 763 mmHg 83%

    Day after tomorrow, 20 September, Friday

    Time Temperature Precipitation Wind Pressure Humidity
    00:00 +5°C° 0.2 mm 6 mps 763 mmHg 83%
    01:00 +5°C° 0.2 mm 6 mps 763 mmHg 83%
    02:00 +5°C° 0.2 mm 5 mps 763 mmHg 83%
    03:00 +5°C° 0.2 mm 5 mps 764 mmHg 83%
    04:00 +5°C° 0.2 mm 5 mps 764 mmHg 83%
    05:00 +5°C° 0.2 mm 4 mps 764 mmHg 84%
    06:00 +5°C° 0.1 mm 4 mps 764 mmHg 82%
    07:00 +6°C° 0.1 mm 4 mps 764 mmHg 80%
    08:00 +6°C° 0.1 mm 4 mps 764 mmHg 78%
    09:00 +8°C° 0.1 mm 3 mps 765 mmHg 72%
    10:00 +9°C° 0.1 mm 3 mps 765 mmHg 66%
    11:00 +11°C° 0.1 mm 3 mps 765 mmHg 60%
    12:00 +11°C° 0.1 mm 3 mps 765 mmHg 58%
    13:00 +11°C° 0.1 mm 3 mps 765 mmHg 55%
    14:00 +13°C° 0.1 mm 2 mps 764 mmHg 53%
    15:00 +12°C° 0 mm 2 mps 764 mmHg 56%
    16:00 +12°C° 0 mm 2 mps 764 mmHg 59%
    17:00 +12°C° 0 mm 2 mps 764 mmHg 62%
    18:00 +10°C° 0.1 mm 3 mps 763 mmHg 67%
    19:00 +10°C° 0.1 mm 3 mps 763 mmHg 71%
    20:00 +8°C° 0.1 mm 4 mps 763 mmHg 76%
    21:00 +8°C° 0.1 mm 4 mps 762 mmHg 78%
    22:00 +8°C° 0.1 mm 4 mps 762 mmHg 80%
    23:00 +8°C° 0.1 mm 5 mps 761 mmHg 82%

    21 September, Saturday

    Time Temperature Precipitation Wind Pressure Humidity
    00:00 +8°C° 0.3 mm 5 mps 761 mmHg 85%
    01:00 +9°C° 0.3 mm 5 mps 760 mmHg 89%
    02:00 +9°C° 0.3 mm 5 mps 760 mmHg 93%
    03:00 +10°C° 0.1 mm 5 mps 759 mmHg 92%
    04:00 +10°C° 0.1 mm 5 mps 759 mmHg 91%
    05:00 +12°C° 0.1 mm 5 mps 759 mmHg 91%
    06:00 +12°C° 0.1 mm 5 mps 759 mmHg 90%
    07:00 +11°C° 0.1 mm 6 mps 759 mmHg 89%
    08:00 +13°C° 0.1 mm 6 mps 759 mmHg 88%
    09:00 +14°C° 0 mm 6 mps 759 mmHg 82%
    10:00 +15°C° 0 mm 6 mps 759 mmHg 76%
    11:00 +16°C° 0 mm 6 mps 760 mmHg 70%
    12:00 +17°C° 0 mm 6 mps 760 mmHg 67%
    13:00 +17°C° 0 mm 5 mps 760 mmHg 64%
    14:00 +17°C° 0 mm 5 mps 760 mmHg 62%
    15:00 +17°C° 0 mm 6 mps 760 mmHg 63%
    16:00 +17°C° 0 mm 6 mps 759 mmHg 64%
    17:00 +17°C° 0 mm 6 mps 759 mmHg 65%
    18:00 +15°C° 0 mm 6 mps 759 mmHg 70%
    19:00 +14°C° 0 mm 6 mps 759 mmHg 76%
    20:00 +13°C° 0 mm 5 mps 759 mmHg 82%
    21:00 +13°C° 0 mm 6 mps 759 mmHg 83%
    22:00 +11°C° 0 mm 6 mps 759 mmHg 84%
    23:00 +11°C° 0 mm 6 mps 759 mmHg 85%

    22 September, Sunday

    Time Temperature Precipitation Wind Pressure Humidity
    00:00 +12°C° 0 mm 7 mps 759 mmHg 84%
    01:00 +12°C° 0 mm 7 mps 759 mmHg 83%
    02:00 +12°C° 0 mm 7 mps 760 mmHg 81%
    03:00 +11°C° 0 mm 7 mps 760 mmHg 76%
    04:00 +10°C° 0 mm 7 mps 761 mmHg 70%
    05:00 +9°C° 0 mm 7 mps 762 mmHg 64%
    06:00 +9°C° 0 mm 7 mps 762 mmHg 63%
    07:00 +8°C° 0 mm 6 mps 763 mmHg 62%
    08:00 +8°C° 0 mm 5 mps 763 mmHg 61%
    09:00 +8°C° 0 mm 4 mps 764 mmHg 58%
    10:00 +10°C° 0 mm 3 mps 764 mmHg 55%
    11:00 +11°C° 0 mm 3 mps 765 mmHg 52%
    12:00 +12°C° 0 mm 2 mps 765 mmHg 50%
    13:00 +12°C° 0 mm 2 mps 765 mmHg 49%
    14:00 +13°C° 0 mm 2 mps 765 mmHg 48%
    15:00 +12°C° 0 mm 2 mps 764 mmHg 51%
    16:00 +12°C° 0 mm 2 mps 764 mmHg 53%
    17:00 +10°C° 0 mm 2 mps 764 mmHg 56%
    18:00 +9°C° 0 mm 2 mps 764 mmHg 59%
    19:00 +8°C° 0 mm 2 mps 764 mmHg 63%
    20:00 +8°C° 0 mm 1 mps 764 mmHg 66%
    21:00 +7°C° 0 mm 2 mps 764 mmHg 68%
    22:00 +6°C° 0 mm 2 mps 764 mmHg 69%
    23:00 +6°C° 0 mm 2 mps 764 mmHg 71%

    23 September, Monday

    Time Temperature Precipitation Wind Pressure Humidity
    00:00 +5°C° 0 mm 3 mps 763 mmHg 71%
    01:00 +5°C° 0 mm 3 mps 763 mmHg 71%
    02:00 +5°C° 0 mm 3 mps 763 mmHg 72%
    03:00 +4°C° 0 mm 3 mps 762 mmHg 73%
    04:00 +4°C° 0 mm 3 mps 762 mmHg 74%
    05:00 +4°C° 0 mm 3 mps 761 mmHg 75%
    06:00 +4°C° 0 mm 4 mps 761 mmHg 73%
    07:00 +5°C° 0 mm 4 mps 760 mmHg 71%
    08:00 +6°C° 0 mm 4 mps 760 mmHg 70%
    09:00 +7°C° 0 mm 4 mps 759 mmHg 69%
    10:00 +8°C° 0 mm 4 mps 759 mmHg 68%
    11:00 +10°C° 0 mm 4 mps 758 mmHg 67%
    12:00 +11°C° 0 mm 4 mps 758 mmHg 67%
    13:00 +13°C° 0 mm 3 mps 757 mmHg 66%
    14:00 +14°C° 0 mm 3 mps 756 mmHg 65%
    15:00 +14°C° 0 mm 3 mps 756 mmHg 68%
    16:00 +16°C° 0 mm 2 mps 756 mmHg 71%
    17:00 +16°C° 0 mm 2 mps 755 mmHg 74%
    18:00 +14°C° 0 mm 2 mps 755 mmHg 80%
    19:00 +12°C° 0 mm 3 mps 755 mmHg 86%
    20:00 +10°C° 0 mm 3 mps 754 mmHg 92%
    21:00 +10°C° 0 mm 3 mps 754 mmHg 93%
    22:00 +9°C° 0 mm 3 mps 754 mmHg 94%
    23:00 +9°C° 0 mm 3 mps 754 mmHg 94%
    Show more